DELTA 1 DEB, 10828

Orbit data source: Space-Track

DELTA 1 DEB, 10828 is space debris in SSO originally from a launch on Thu, 29 Jul 1976 UTC launched from the Air Force Western Test Range (AFWTR). Debris objects in space refer to the collection of defunct objects orbiting the Earth. Examples of debris include non-operational satellites, rocket bodies, and fragments generated from explosions, collisions, or faulty payload assembly.

Loading next visibility...
Identifier
10828, 1976-077BY
Orbit
SSO
Country
Flag of USUS
Related business
Manufacturer
Unknown
Mission
Spacecraft
Bus & Motor
Unknown
Mass
Unknown
Launch date (UTC)
1976-07-29 (50 years ago)
Launch vehicle
Unknown
Launch site
Air Force Western Test Range (AFWTR)
Object type
Payload
Rocket body
Debris
Shape & HBR
Unknown shape, 0.2 m
Radar Cross Section
Medium (>0.1 m² and <1 m²)

Expand to show TLE details & history
Last TLE update: 2 days ago

TLE from 2 days ago
0 DELTA 1 DEB
1 10828U 76077BY  26171.33311756 -.00000025  00000-0  18981-3 0  9990
2 10828 102.5747 132.0132 0099576 335.1311 185.9936 12.22380335227092
Epoch: 2026-06-20T07:59Z
TLE epoch observation values (Epoch: 2026-06-20T07:59:41.357Z)
Latitude
18.51849°
Longitude
-72.19404°
Altitude
1,663.048 km
Speed
7.008 km/s
True Right ascension
21h 05m 06s
True Declination
18° 25' 37"
Sunlit
Object was in daylight at epoch
Visualization orbit readout
Latitude
Unknown
Longitude
Unknown
Altitude
Unknown
Speed
Unknown
Apparent Right ascension
Unknown
Apparent Declination
Unknown
Sunlit
N/A
Visualization observer readout
Local Sidereal Time
02:14:53
Azimuth
Unknown
Elevation
Unknown
Doppler factor
Unknown
Orbital elements
Apogee altitude
1,659.065 km
Perigee altitude
1,500.58 km
Semi-major axis
7,957.96 km
Eccentricity
0.00996
Inclination
102.5747°
RAAN
132.0132°
Arg. of periapsis
335.1311°
True anomaly
185.87591°
Mean anomaly
185.9936°
Eccentric anomaly
185.93461°
Mean motion
3.05732 °/min
Orbital period
117.75 mins
BSTAR
0.00018981
Loading maneuver chart data...
Computing Atmospheric mass density...
Loading historical data...
Loading historical data...
Loading historical data...
Loading historical data...
Loading historical data...
Loading historical data...
Loading historical data...

Documentation

Showing up to 5 results
|